Temperature
16 16 16 16 16 16 16 16 16 16 16 15 14 14 14 14 14 14 14 14 14 14 14 14 14 14 13 13 13 13 13 13 13 13 13 13 12 12
17 17 16 16 16 16 16 16 16 16 16 15 14 14 14 13 14 13 13 13 13 13 13 13 13 13 13 13 13 13 13 13 12 12 12 12 12 12
16 16 16 16 16 16 15 15 15 15 15 14 14 14 13 13 13 13 13 13 13 13 13 13 13 13 13 13 12 12 12 12 12 12 12 12 12 12
16 16 16 16 16 15 15 15 15 15 15 14 14 13 13 13 13 13 12 12 12 12 12 12 12 12 12 12 12 12 12 12 12 12 11 11 11 11
16 16 16 16 15 15 15 15 15 15 14 14 13 13 13 13 12 12 12 12 12 12 12 12 12 12 12 12 12 11 11 11 11 11 11 11 11 11
16 16 15 15 15 15 15 15 14 14 14 14 14 13 13 12 12 12 12 12 12 12 11 12 12 12 12 11 11 11 11 11 11 11 10 10 10 10
16 16 15 15 15 15 15 15 14 14 14 14 13 13 13 12 12 12 12 12 12 12 11 11 11 11 11 11 11 11 11 11 10 10 10 10 10 10
16 15 15 15 15 15 15 15 14 14 13 13 13 13 13 13 12 12 12 12 12 11 11 11 11 11 11 11 11 11 11 10 10 10 10 10 10 9
15 15 15 15 15 15 15 14 14 14 13 13 13 13 13 12 12 12 12 12 12 11 11 11 11 11 11 11 11 11 10 10 10 10 10 9 9 9
15 15 15 14 14 14 14 14 14 14 13 13 13 13 12 12 12 12 12 11 11 11 11 11 11 11 11 11 11 11 10 10 10 10 9 9 9 9
15 15 14 14 14 14 14 13 13 13 13 13 13 12 12 12 12 12 11 11 12 12 11 11 11 11 11 11 11 11 10 10 10 10 9 9 9 9
15 14 14 14 14 14 13 13 13 13 13 13 12 12 12 12 12 11 11 11 12 12 11 11 11 11 11 11 10 10 10 10 10 10 9 9 9 9
14 14 14 14 14 14 13 13 13 12 12 12 12 12 12 11 11 11 11 11 11 11 11 11 11 11 11 11 10 10 10 10 10 9 9 9 9 8
14 14 14 14 14 13 13 13 12 12 12 12 12 12 12 11 11 11 11 11 11 11 11 10 10 10 11 11 11 10 10 10 9 9 9 9 9 9
14 14 13 13 13 13 12 12 12 12 12 12 12 12 12 11 11 11 11 11 11 11 10 10 10 10 10 10 10 10 10 9 9 9 9 9 9 9
13 13 13 13 12 12 12 12 11 11 11 11 11 11 11 11 11 11 10 10 10 10 10 10 10 10 10 10 10 10 10 9 9 9 9 9 9 9
13 13 12 12 12 12 11 11 11 11 11 11 11 11 11 11 10 10 10 10 10 10 10 10 10 10 9 9 9 9 9 9 9 9 8 9 9 9
12 12 12 12 12 12 11 11 11 11 11 11 11 11 10 10 10 10 10 10 10 10 9 9 9 9 9 9 9 9 9 9 9 9 8 9 9 9
12 12 12 12 11 12 11 11 11 11 11 10 10 10 10 10 10 10 9 9 9 9 9 9 9 9 9 9 9 9 9 9 9 9 9 9 9 9
12 12 12 12 11 11 11 11 11 11 10 10 10 10 10 9 9 9 9 9 9 9 9 9 9 9 9 9 9 9 9 9 9 9 9 9 9 9
12 12 12 11 11 11 11 10 10 10 10 10 10 10 9 9 9 9 9 9 9 9 9 9 8 8 8 8 9 9 9 9 8 8 8 8 9 8
11 11 11 11 11 11 10 10 10 10 10 9 9 9 9 9 9 9 9 9 9 9 9 8 8 8 8 8 8 9 9 8 8 8 8 8 8 8
11 11 11 11 10 10 10 10 10 10 9 9 9 9 9 9 9 9 9 8 8 8 8 8 8 8 8 8 8 9 9 8 8 8 8 8 8 8
Wind_Speed
4 4 4 3 3 3 3 4 3 3 3 3 3 2 3 3 3 3 3 5 5 4 3 3 4 3 3 4 4 4 4 4 4 3 4 4 4 4
3 3 3 3 3 3 4 4 4 4 3 2 2 3 2 3 4 3 4 6 5 4 3 3 3 3 3 3 4 4 4 4 3 3 4 4 4 4
3 3 3 3 3 3 3 3 3 3 3 2 2 2 2 2 3 3 4 4 4 5 4 3 3 3 3 3 3 3 3 3 3 3 4 4 4 3
3 3 3 3 4 3 3 3 3 3 4 3 3 3 3 4 4 4 4 4 3 7 5 4 3 3 3 3 3 3 3 3 3 3 3 3 3 2
3 3 3 3 4 3 3 3 3 4 4 4 4 3 3 4 4 4 3 3 4 6 7 6 5 4 3 3 3 3 3 3 3 3 3 3 3 2
3 3 3 4 4 4 4 4 3 4 4 5 4 4 4 5 5 4 4 4 4 4 4 5 6 7 6 5 4 3 3 3 4 4 4 3 3 2
3 3 3 2 2 3 3 4 4 5 5 5 5 4 5 5 5 5 4 4 4 3 4 5 6 6 7 8 7 6 6 6 5 5 5 4 4 3
4 4 4 4 3 3 2 3 4 6 6 6 6 6 6 6 5 5 4 4 4 4 4 4 4 4 5 5 7 8 8 7 7 7 6 5 5 5
5 4 4 3 5 4 5 6 5 5 6 7 6 6 6 6 6 7 6 6 4 3 4 5 4 4 5 5 10 10 9 9 9 9 9 8 7 6
6 5 4 4 3 4 5 5 5 6 6 6 5 5 5 5 6 7 6 6 5 5 5 5 4 4 5 5 11 12 12 12 11 11 11 10 9 8
6 5 5 5 3 4 5 5 5 4 4 3 3 3 3 5 6 6 6 6 6 6 5 6 5 4 5 5 8 13 14 14 14 13 13 12 11 9
5 6 5 5 4 5 6 5 6 5 4 5 5 6 7 8 10 8 7 7 6 5 4 5 5 4 5 5 5 7 10 13 15 15 15 15 14 10
6 5 4 7 6 6 7 6 4 4 4 5 5 6 6 7 8 9 8 7 7 6 3 5 5 5 6 4 4 5 6 7 9 12 14 16 16 13
5 4 3 7 7 7 5 3 3 4 5 5 5 5 6 6 6 7 8 8 7 7 5 5 6 6 6 6 5 4 6 6 7 7 9 13 16 17
4 1 3 7 7 6 7 6 6 6 6 6 6 5 5 5 5 6 7 7 8 8 7 8 8 7 7 7 6 5 5 5 6 6 7 8 9 10
4 4 7 7 6 5 6 7 7 6 6 6 6 5 5 5 6 6 6 6 6 7 8 9 9 8 7 7 7 6 6 5 6 6 6 7 9 10
5 5 4 4 5 5 6 6 6 6 6 7 6 6 6 6 6 5 5 5 6 6 5 6 8 8 8 7 7 7 7 7 7 7 7 8 8 8
5 5 5 5 6 6 6 6 6 6 6 6 7 7 6 6 6 6 6 7 7 7 6 5 5 5 6 7 8 8 8 7 7 7 8 8 8 8
6 6 6 6 6 6 6 6 6 6 6 7 7 7 6 6 6 6 7 7 7 7 6 6 6 7 8 9 8 11 9 7 7 7 8 9 9 8
7 7 7 7 6 6 6 6 6 6 6 7 7 7 7 7 7 7 7 7 7 7 7 6 7 8 9 9 8 8 13 10 8 8 8 8 8 6
7 7 7 7 6 6 6 6 6 6 6 7 6 7 7 7 7 8 7 7 8 8 8 8 7 8 8 8 9 8 7 12 10 8 8 8 8 7
7 7 6 6 6 6 6 6 6 6 7 8 7 7 7 8 8 8 8 8 8 8 9 7 7 7 9 10 10 10 8 7 10 12 11 9 7 7
6 6 6 6 6 6 6 7 8 7 7 8 7 7 8 8 8 8 8 8 7 8 8 8 7 7 9 10 10 10 10 9 7 7 9 11 12 9
Wind_Direction
222 218 229 227 233 236 233 236 241 238 221 185 184 165 172 146 143 153 132 123 124 111 92 82 79 80 78 78 81 83 85 90 101 122 131 129 127 126
230 234 234 234 230 230 234 235 240 245 239 182 187 181 170 158 153 164 147 141 133 129 116 109 106 105 101 98 100 101 102 108 105 118 136 134 129 127
224 222 226 242 240 232 229 232 231 229 222 191 170 160 173 192 170 185 175 179 150 148 147 136 125 123 122 119 115 109 106 108 109 116 125 133 136 135
231 230 232 225 231 238 233 229 226 226 220 199 198 189 198 194 191 200 189 195 177 149 160 158 151 147 142 131 122 117 115 116 120 125 131 141 150 150
233 238 242 233 233 228 234 227 222 218 214 209 201 197 202 198 199 206 201 212 212 166 173 175 173 168 156 143 138 135 134 135 141 145 148 149 150 158
229 233 239 235 231 228 226 228 224 218 210 212 201 198 199 202 208 210 208 205 219 202 192 183 179 181 176 176 174 174 174 170 164 162 159 158 159 161
222 230 234 236 259 249 241 226 218 221 214 211 207 208 206 201 210 215 216 214 210 218 218 201 193 196 189 193 197 197 192 187 182 180 178 177 178 178
219 223 216 202 194 206 250 253 243 227 222 220 215 213 212 212 212 213 214 220 223 206 223 224 216 215 207 202 180 185 194 194 193 192 192 191 189 190
224 229 235 211 204 208 206 214 228 240 244 242 232 225 217 214 214 213 214 227 238 211 225 237 229 235 227 187 168 185 196 201 202 202 202 202 202 201
230 232 233 231 228 220 216 217 220 222 231 238 237 238 225 211 215 221 223 230 238 215 220 247 239 246 238 200 177 192 203 207 209 210 209 208 209 211
230 229 229 224 204 237 226 222 219 216 205 205 223 225 219 208 218 223 218 228 235 221 212 241 247 249 240 222 195 195 204 209 211 213 212 211 212 215
225 225 222 225 195 219 227 224 223 222 212 196 201 209 212 208 209 223 226 234 242 240 205 228 242 241 242 226 213 203 210 210 212 214 215 214 212 221
230 227 214 180 199 220 242 236 230 233 223 221 218 213 212 211 213 216 228 239 247 250 215 212 243 239 245 241 228 222 218 215 214 219 217 214 213 222
238 233 196 164 190 210 224 211 198 229 230 229 228 225 222 220 219 220 224 235 249 260 254 234 246 247 248 251 245 226 221 221 222 222 218 208 215 224
234 160 146 167 185 203 211 207 208 223 226 230 235 238 237 234 226 219 221 227 236 242 237 233 242 245 249 255 254 246 237 231 228 230 225 215 214 216
216 174 170 185 211 217 204 213 224 232 236 238 240 240 235 226 229 229 231 228 234 235 223 227 236 245 248 249 252 248 241 243 236 234 234 230 223 221
198 204 202 199 207 216 222 224 227 226 231 238 243 240 233 229 229 230 234 240 245 245 240 229 226 234 244 251 252 249 245 244 239 229 231 238 234 230
203 215 217 220 222 223 225 225 228 233 235 235 239 241 237 235 235 230 230 234 242 246 241 237 231 235 245 242 233 245 246 247 242 227 231 239 237 229
213 225 227 229 231 230 232 235 234 233 236 239 238 237 238 239 239 238 237 239 245 248 245 238 234 238 247 253 234 220 242 248 245 236 233 238 244 237
225 228 230 232 234 236 238 241 243 237 232 235 237 237 237 239 241 242 238 238 245 248 247 242 238 238 246 258 262 243 222 237 244 243 241 242 246 237
226 231 234 237 238 239 244 247 246 243 240 239 239 240 239 239 242 246 246 234 242 246 246 247 245 240 252 256 257 251 234 218 233 247 250 249 248 241
233 234 236 238 240 241 239 241 241 241 241 240 240 240 243 243 244 246 250 247 245 248 251 251 241 240 245 248 251 253 248 231 224 228 239 250 256 252
234 236 235 238 240 241 242 242 245 246 243 244 243 243 244 244 245 245 245 247 251 252 252 253 249 243 247 249 251 252 249 239 235 228 228 224 229 237
Height
1547 1547 1547 1548 1548 1549 1549 1550 1551 1550 1551 1551 1551 1551 1552 1551 1551 1551 1550 1549 1549 1548 1548 1547 1546 1545 1545 1544 1543 1543 1543 1543 1543 1543 1543 1543 1543 1543
1545 1545 1545 1546 1546 1547 1547 1547 1548 1549 1548 1548 1548 1549 1549 1550 1549 1549 1548 1548 1547 1547 1546 1545 1544 1544 1543 1542 1542 1541 1541 1541 1541 1541 1541 1541 1541 1541
1543 1543 1543 1543 1544 1544 1545 1545 1545 1545 1546 1546 1546 1546 1547 1547 1547 1547 1547 1546 1546 1545 1544 1543 1543 1542 1541 1541 1540 1540 1540 1539 1539 1539 1539 1539 1539 1539
1541 1541 1541 1541 1541 1542 1542 1542 1542 1542 1543 1543 1543 1544 1544 1544 1544 1545 1545 1545 1545 1543 1543 1542 1541 1541 1540 1539 1539 1538 1538 1538 1538 1537 1537 1537 1537 1538
1539 1539 1539 1539 1539 1539 1540 1540 1540 1540 1540 1541 1540 1541 1541 1542 1542 1543 1543 1542 1543 1542 1541 1540 1540 1539 1539 1538 1538 1537 1537 1536 1536 1536 1536 1536 1536 1536
1537 1537 1537 1537 1536 1537 1537 1537 1537 1537 1537 1537 1537 1537 1538 1539 1539 1540 1540 1540 1540 1541 1539 1539 1538 1537 1537 1536 1536 1535 1535 1535 1534 1534 1534 1534 1534 1534
1534 1534 1534 1533 1533 1533 1534 1534 1534 1534 1534 1534 1534 1534 1535 1535 1536 1537 1538 1538 1538 1538 1538 1537 1536 1536 1535 1534 1534 1533 1533 1533 1532 1532 1532 1532 1532 1532
1531 1531 1531 1530 1530 1530 1530 1530 1530 1530 1531 1531 1531 1531 1531 1532 1533 1533 1534 1535 1535 1536 1535 1535 1535 1535 1533 1533 1532 1531 1531 1531 1530 1531 1531 1530 1530 1530
1528 1528 1529 1528 1527 1526 1526 1526 1527 1527 1527 1528 1528 1527 1528 1528 1529 1530 1530 1531 1532 1532 1532 1532 1532 1532 1532 1530 1529 1529 1529 1528 1528 1528 1528 1528 1528 1528
1525 1525 1525 1524 1524 1523 1523 1523 1523 1523 1523 1524 1524 1524 1524 1524 1525 1527 1527 1528 1528 1528 1528 1529 1529 1529 1529 1528 1526 1526 1526 1526 1525 1525 1526 1526 1526 1526
1522 1521 1521 1520 1520 1520 1520 1519 1519 1519 1519 1519 1520 1520 1520 1521 1522 1523 1524 1524 1525 1525 1525 1525 1525 1525 1525 1524 1523 1523 1523 1522 1522 1523 1523 1523 1523 1523
1517 1517 1516 1516 1516 1516 1516 1516 1516 1516 1516 1515 1516 1516 1517 1517 1518 1519 1520 1520 1521 1521 1521 1521 1522 1522 1521 1521 1521 1519 1519 1519 1519 1519 1519 1520 1520 1520
1513 1513 1512 1512 1512 1512 1512 1513 1512 1512 1512 1513 1513 1513 1513 1514 1514 1514 1515 1516 1517 1517 1517 1517 1518 1518 1518 1517 1517 1516 1516 1516 1515 1515 1516 1516 1516 1517
1508 1508 1508 1507 1507 1508 1508 1508 1509 1509 1509 1510 1510 1510 1510 1510 1510 1510 1510 1511 1511 1512 1512 1513 1513 1513 1513 1513 1513 1513 1512 1512 1512 1512 1512 1512 1512 1513
1503 1504 1504 1504 1504 1504 1504 1505 1505 1505 1505 1506 1506 1506 1507 1506 1506 1506 1506 1506 1506 1507 1508 1507 1508 1509 1509 1509 1509 1509 1508 1508 1508 1508 1508 1508 1508 1508
1499 1499 1500 1500 1500 1501 1501 1501 1501 1502 1502 1502 1502 1502 1502 1502 1502 1502 1502 1502 1502 1503 1503 1503 1503 1503 1504 1504 1504 1504 1504 1503 1503 1504 1504 1504 1504 1504
1495 1495 1496 1496 1497 1497 1497 1498 1498 1498 1498 1498 1498 1498 1498 1498 1497 1498 1497 1497 1498 1498 1498 1498 1499 1498 1498 1499 1499 1499 1499 1499 1499 1499 1499 1499 1499 1499
1492 1492 1493 1493 1493 1493 1494 1494 1494 1494 1494 1494 1494 1494 1493 1493 1493 1493 1493 1492 1492 1493 1493 1493 1494 1493 1494 1493 1493 1493 1494 1494 1494 1494 1494 1494 1494 1494
1488 1488 1489 1489 1489 1489 1490 1490 1490 1489 1489 1489 1489 1489 1489 1489 1488 1488 1488 1488 1488 1488 1488 1488 1488 1488 1488 1487 1487 1488 1489 1489 1489 1489 1488 1489 1489 1489
1483 1483 1484 1484 1485 1485 1485 1485 1485 1485 1485 1484 1484 1484 1484 1484 1484 1483 1483 1483 1483 1482 1483 1483 1483 1482 1482 1482 1482 1482 1482 1483 1483 1483 1483 1483 1484 1484
1478 1479 1479 1479 1480 1480 1480 1480 1480 1480 1480 1480 1480 1479 1479 1479 1479 1478 1478 1477 1477 1477 1476 1476 1476 1477 1477 1478 1477 1476 1477 1477 1477 1478 1478 1478 1478 1478
1473 1474 1474 1474 1475 1475 1475 1475 1475 1475 1475 1475 1475 1474 1474 1474 1473 1473 1473 1472 1472 1471 1471 1471 1471 1471 1472 1471 1471 1471 1471 1471 1471 1471 1472 1472 1472 1472
1468 1469 1469 1469 1469 1470 1470 1470 1470 1470 1470 1470 1470 1469 1469 1468 1468 1468 1467 1467 1467 1466 1466 1466 1466 1466 1465 1465 1465 1465 1465 1465 1465 1465 1465 1465 1466 1467